GW6132 Weather Reports


Display with metric or nautical units.
time (UTC)temp
F
wind
direction
speed
MPH
gust
MPH
rain 1hr
in
rain 24hr
in
rain mn
in
humidity
%
barometer
mb
20260507023722 91 71 3.0 6.0 0.00 0.00 0.00 60 1007.0
20260507023223 91 93 4.0 9.0 0.00 0.00 0.00 59 1007.0
20260507022724 92 113 4.0 7.0 0.00 0.00 0.00 59 1007.0
20260507022222 92 69 3.0 6.0 0.00 0.00 0.00 59 1007.0
20260507021723 92 98 6.0 9.0 0.00 0.00 0.00 58 1007.0
20260507021222 92 38 5.0 8.0 0.00 0.00 0.00 58 1007.0
20260507020723 92 125 4.0 8.0 0.00 0.00 0.00 58 1007.0
20260507020223 92 73 7.0 10.0 0.00 0.00 0.00 58 1007.0
20260507015723 93 105 7.0 11.0 0.00 0.00 0.00 58 1007.0
20260507015223 93 100 6.0 9.0 0.00 0.00 0.00 58 1007.0
20260507014722 93 99 6.0 11.0 0.00 0.00 0.00 57 1007.0
20260507014223 94 68 6.0 10.0 0.00 0.00 0.00 57 1007.0
20260507013723 94 101 4.0 8.0 0.00 0.00 0.00 57 1006.0
20260507013222 94 118 5.0 8.0 0.00 0.00 0.00 56 1006.0
20260507012724 94 118 5.0 10.0 0.00 0.00 0.00 56 1006.0
20260507012223 94 93 7.0 11.0 0.00 0.00 0.00 56 1006.0
20260507011724 95 124 6.0 10.0 0.00 0.00 0.00 55 1006.0
20260507011223 95 90 8.0 11.0 0.00 0.00 0.00 55 1006.0
20260507010723 95 106 7.0 11.0 0.00 0.00 0.00 55 1006.0
20260507010223 96 85 7.0 11.0 0.00 0.00 0.00 54 1006.0
20260507005723 96 106 7.0 12.0 0.00 0.00 0.00 54 1006.0
20260507005223 96 84 6.0 10.0 0.00 0.00 0.00 53 1006.0
20260507004722 97 97 6.0 11.0 0.00 0.00 0.00 53 1006.0
20260507004222 97 112 9.0 13.0 0.00 0.00 0.00 52 1006.0
20260507003723 98 105 6.0 11.0 0.00 0.00 0.00 52 1006.0
20260507003222 98 62 7.0 13.0 0.00 0.00 0.00 51 1006.0
20260507002723 98 83 7.0 13.0 0.00 0.00 0.00 51 1006.0
20260507002224 99 87 6.0 11.0 0.00 0.00 0.00 51 1006.0
20260507001723 99 94 9.0 14.0 0.00 0.00 0.00 50 1005.0
20260507001223 100 84 7.0 13.0 0.00 0.00 0.00 49 1005.0
20260507000722 100 103 8.0 12.0 0.00 0.00 0.00 49 1005.0
20260507000223 101 100 7.0 13.0 0.00 0.00 0.00 48 1005.0
20260506235723 101 92 8.0 13.0 0.00 0.00 0.00 47 1005.0
20260506235223 102 89 9.0 14.0 0.00 0.00 0.00 46 1005.0
20260506234725 103 101 6.0 13.0 0.00 0.00 0.00 43 1005.0
20260506234228 103 92 6.0 10.0 0.00 0.00 0.00 42 1005.0
20260506233722 103 91 4.0 8.0 0.00 0.00 0.00 41 1005.0
20260506233222 104 115 5.0 9.0 0.00 0.00 0.00 41 1005.0
20260506232722 104 61 4.0 7.0 0.00 0.00 0.00 40 1005.0
20260506232223 104 57 4.0 8.0 0.00 0.00 0.00 40 1005.0
20260506231224 104 81 4.0 8.0 0.00 0.00 0.00 40 1005.0
20260506230722 105 144 4.0 8.0 0.00 0.00 0.00 39 1005.0
20260506230232 105 124 4.0 7.0 0.00 0.00 0.00 39 1005.0
20260506225722 105 77 6.0 10.0 0.00 0.00 0.00 38 1005.0
20260506225222 105 145 4.0 8.0 0.00 0.00 0.00 38 1005.0
20260506224723 105 255 4.0 7.0 0.00 0.00 0.00 38 1005.0
20260506224222 105 70 5.0 8.0 0.00 0.00 0.00 38 1005.0
20260506223722 105 83 5.0 10.0 0.00 0.00 0.00 37 1005.0
20260506223223 105 84 5.0 9.0 0.00 0.00 0.00 37 1005.0
20260506222722 105 126 7.0 11.0 0.00 0.00 0.00 38 1005.0
20260506222223 105 131 7.0 10.0 0.00 0.00 0.00 37 1005.0
20260506221722 106 131 4.0 7.0 0.00 0.00 0.00 37 1005.0
20260506221222 106 54 6.0 8.0 0.00 0.00 0.00 37 1005.0
20260506220722 106 137 3.0 7.0 0.00 0.00 0.00 38 1005.0
20260506220223 105 124 6.0 11.0 0.00 0.00 0.00 37 1005.0
20260506215723 105 13 7.0 12.0 0.00 0.00 0.00 37 1005.0
20260506215223 105 96 6.0 10.0 0.00 0.00 0.00 38 1005.0
20260506214723 105 19 7.0 11.0 0.00 0.00 0.00 38 1005.0
20260506214222 106 132 6.0 11.0 0.00 0.00 0.00 38 1005.0
20260506213722 106 60 6.0 8.0 0.00 0.00 0.00 37 1005.0
20260506213223 106 87 5.0 7.0 0.00 0.00 0.00 36 1005.0
20260506212724 106 50 6.0 8.0 0.00 0.00 0.00 39 1005.0
20260506212223 105 70 5.0 9.0 0.00 0.00 0.00 39 1005.0
20260506211723 105 101 7.0 13.0 0.00 0.00 0.00 38 1005.0
20260506211222 105 75 7.0 11.0 0.00 0.00 0.00 39 1005.0
20260506210723 105 89 7.0 11.0 0.00 0.00 0.00 39 1005.0
20260506210223 105 84 7.0 10.0 0.00 0.00 0.00 39 1005.0
20260506205722 105 87 6.0 10.0 0.00 0.00 0.00 40 1005.0
20260506205223 105 201 6.0 9.0 0.00 0.00 0.00 42 1005.0
20260506204723 105 96 6.0 10.0 0.00 0.00 0.00 40 1005.0
20260506204223 105 53 4.0 6.0 0.00 0.00 0.00 41 1005.0
20260506203722 105 49 4.0 8.0 0.00 0.00 0.00 40 1006.0
20260506203223 105 10 4.0 10.0 0.00 0.00 0.00 41 1006.0
20260506202722 105 110 4.0 8.0 0.00 0.00 0.00 41 1006.0
20260506202223 104 196 7.0 10.0 0.00 0.00 0.00 42 1006.0
20260506201723 104 70 6.0 11.0 0.00 0.00 0.00 42 1006.0
20260506201223 104 308 5.0 9.0 0.00 0.00 0.00 41 1006.0
20260506200723 104 67 7.0 12.0 0.00 0.00 0.00 42 1006.0
20260506200223 105 65 4.0 9.0 0.00 0.00 0.00 40 1006.0
20260506195722 103 102 8.0 12.0 0.00 0.00 0.00 42 1006.0
20260506194738 105 124 4.0 9.0 0.00 0.00 0.00 41 1006.0
20260506194222 104 86 4.0 8.0 0.00 0.00 0.00 42 1007.0
20260506193725 103 78 7.0 11.0 0.00 0.00 0.00 43 1007.0
20260506193225 103 135 5.0 12.0 0.00 0.00 0.00 42 1007.0
20260506192726 103 163 6.0 9.0 0.00 0.00 0.00 43 1007.0
20260506192223 103 57 5.0 9.0 0.00 0.00 0.00 41 1007.0
20260506191727 103 80 6.0 9.0 0.00 0.00 0.00 42 1007.0
20260506191226 104 216 3.0 6.0 0.00 0.00 0.00 43 1007.0
20260506190727 103 165 4.0 8.0 0.00 0.00 0.00 43 1007.0
20260506190226 102 70 5.0 9.0 0.00 0.00 0.00 45 1007.0
20260506185723 102 81 4.0 8.0 0.00 0.00 0.00 44 1008.0
20260506185223 101 129 6.0 9.0 0.00 0.00 0.00 45 1008.0
20260506184723 101 77 7.0 10.0 0.00 0.00 0.00 46 1008.0
20260506184222 101 196 6.0 11.0 0.00 0.00 0.00 47 1008.0
20260506183722 100 75 6.0 13.0 0.00 0.00 0.00 47 1008.0
20260506183223 101 29 6.0 11.0 0.00 0.00 0.00 46 1008.0
20260506182722 101 142 4.0 12.0 0.00 0.00 0.00 46 1008.0
20260506182222 100 70 6.0 10.0 0.00 0.00 0.00 47 1008.0
20260506181723 101 109 5.0 9.0 0.00 0.00 0.00 47 1008.0
20260506181224 100 153 5.0 9.0 0.00 0.00 0.00 47 1008.0
20260506180723 100 160 5.0 8.0 0.00 0.00 0.00 48 1008.0
20260506180222 100 81 5.0 10.0 0.00 0.00 0.00 48 1008.0
20260506175722 99 155 4.0 6.0 0.00 0.00 0.00 49 1008.0
20260506175223 99 92 5.0 8.0 0.00 0.00 0.00 50 1009.0
20260506174723 98 162 5.0 10.0 0.00 0.00 0.00 52 1009.0
20260506174222 98 62 5.0 11.0 0.00 0.00 0.00 52 1009.0
20260506173722 99 121 5.0 8.0 0.00 0.00 0.00 52 1009.0
20260506173222 99 33 4.0 10.0 0.00 0.00 0.00 51 1009.0
20260506172723 98 106 3.0 8.0 0.00 0.00 0.00 54 1009.0
20260506172223 98 207 4.0 7.0 0.00 0.00 0.00 52 1009.0
20260506171722 98 103 4.0 8.0 0.00 0.00 0.00 54 1009.0
20260506171222 96 122 4.0 8.0 0.00 0.00 0.00 55 1009.0
20260506170724 97 146 4.0 9.0 0.00 0.00 0.00 55 1009.0
20260506170223 96 131 5.0 8.0 0.00 0.00 0.00 56 1009.0
20260506165722 95 96 4.0 7.0 0.00 0.00 0.00 57 1009.0
20260506165222 94 123 5.0 9.0 0.00 0.00 0.00 59 1009.0
20260506164729 94 60 4.0 8.0 0.00 0.00 0.00 59 1009.0
20260506164222 94 137 4.0 9.0 0.00 0.00 0.00 58 1009.0
20260506163723 93 60 5.0 9.0 0.00 0.00 0.00 60 1010.0
20260506163226 93 124 4.0 8.0 0.00 0.00 0.00 60 1010.0
20260506162722 92 71 5.0 8.0 0.00 0.00 0.00 60 1010.0
20260506162222 93 97 5.0 8.0 0.00 0.00 0.00 59 1010.0
20260506161723 93 129 4.0 7.0 0.00 0.00 0.00 59 1010.0
20260506161223 92 67 3.0 6.0 0.00 0.00 0.00 60 1010.0
20260506160723 92 27 5.0 8.0 0.00 0.00 0.00 60 1010.0
20260506160225 92 128 3.0 6.0 0.00 0.00 0.00 63 1010.0
20260506155725 91 124 3.0 7.0 0.00 0.00 0.00 65 1010.0
20260506155223 90 124 5.0 8.0 0.00 0.00 0.00 65 1010.0
20260506154722 90 163 3.0 7.0 0.00 0.00 0.00 67 1010.0
20260506154223 89 148 5.0 8.0 0.00 0.00 0.00 71 1010.0
20260506153724 88 102 4.0 8.0 0.00 0.00 0.00 71 1010.0
20260506153224 88 114 4.0 8.0 0.00 0.00 0.00 74 1010.0
20260506152723 87 55 4.0 8.0 0.00 0.00 0.00 77 1010.0
20260506152223 86 110 6.0 9.0 0.00 0.00 0.00 78 1010.0
20260506151723 87 107 5.0 8.0 0.00 0.00 0.00 77 1010.0
20260506151222 86 97 5.0 8.0 0.00 0.00 0.00 78 1010.0
20260506150726 86 123 5.0 8.0 0.00 0.00 0.00 78 1010.0
20260506150228 87 88 5.0 8.0 0.00 0.00 0.00 77 1010.0
20260506145725 87 83 4.0 7.0 0.00 0.00 0.00 76 1010.0
20260506145225 87 91 4.0 6.0 0.00 0.00 0.00 75 1010.0
20260506144723 86 83 3.0 7.0 0.00 0.00 0.00 76 1010.0
20260506144224 86 151 5.0 7.0 0.00 0.00 0.00 74 1010.0
20260506143237 85 154 5.0 7.0 0.00 0.00 0.00 74 1010.0
20260506142723 85 197 4.0 7.0 0.00 0.00 0.00 74 1010.0
20260506142224 85 188 3.0 5.0 0.00 0.00 0.00 75 1010.0
20260506141722 85 141 3.0 6.0 0.00 0.00 0.00 74 1010.0
20260506141223 85 146 3.0 6.0 0.00 0.00 0.00 76 1010.0
20260506140723 84 189 3.0 4.0 0.00 0.00 0.00 77 1010.0
20260506140225 83 156 3.0 7.0 0.00 0.00 0.00 77 1010.0
20260506135723 83 87 2.0 6.0 0.00 0.00 0.00 78 1010.0
20260506135222 82 183 3.0 6.0 0.00 0.00 0.00 80 1010.0
20260506134723 82 170 3.0 6.0 0.00 0.00 0.00 80 1010.0
20260506134223 82 208 3.0 5.0 0.00 0.00 0.00 81 1010.0
20260506133728 82 225 2.0 3.0 0.00 0.00 0.00 82 1010.0
20260506133222 82 53 2.0 3.0 0.00 0.00 0.00 82 1010.0
20260506132723 81 126 3.0 4.0 0.00 0.00 0.00 83 1010.0
20260506132223 81 80 2.0 4.0 0.00 0.00 0.00 83 1010.0
20260506131723 81 119 2.0 4.0 0.00 0.00 0.00 85 1010.0
20260506131223 81 117 1.0 2.0 0.00 0.00 0.00 86 1010.0
20260506130723 80 121 2.0 3.0 0.00 0.00 0.00 86 1010.0
20260506130225 80 59 2.0 3.0 0.00 0.00 0.00 86 1010.0
20260506125723 80 63 1.0 2.0 0.00 0.00 0.00 88 1010.0
20260506125223 80 62 0.0 2.0 0.00 0.00 0.00 90 1010.0
20260506124724 79 9 0.0 0.0 0.00 0.00 0.00 94 1010.0
20260506124223 79 324 0.0 2.0 0.00 0.00 0.00 94 1010.0
20260506123724 78 35 0.0 2.0 0.00 0.00 0.00 94 1010.0
20260506123222 78 25 0.0 0.0 0.00 0.00 0.00 95 1010.0
20260506122723 78 353 0.0 0.0 0.00 0.00 0.00 95 1010.0
20260506122222 78 327 0.0 0.0 0.00 0.00 0.00 95 1010.0
20260506121722 78 316 0.0 1.0 0.00 0.00 0.00 95 1010.0
20260506121223 78 277 0.0 0.0 0.00 0.00 0.00 95 1010.0
20260506120723 78 320 0.0 0.0 0.00 0.00 0.00 95 1010.0
20260506120223 78 315 0.0 0.0 0.00 0.00 0.00 95 1010.0
20260506115722 78 271 0.0 1.0 0.00 0.00 0.00 95 1010.0
20260506115223 78 297 0.0 0.0 0.00 0.00 0.00 94 1010.0
20260506114722 78 8 0.0 1.0 0.00 0.00 0.00 94 1010.0
20260506114222 78 355 0.0 0.0 0.00 0.00 0.00 94 1010.0
20260506113726 78 273 0.0 1.0 0.00 0.00 0.00 94 1010.0
20260506113227 78 233 0.0 1.0 0.00 0.00 0.00 94 1010.0
20260506112727 78 306 0.0 0.0 0.00 0.00 0.00 94 1010.0
20260506112223 78 306 0.0 1.0 0.00 0.00 0.00 94 1010.0
20260506111727 78 245 0.0 1.0 0.00 0.00 0.00 94 1010.0
20260506111226 78 251 0.0 1.0 0.00 0.00 0.00 94 1010.0
20260506110722 78 348 0.0 0.0 0.00 0.00 0.00 94 1010.0
20260506110225 78 228 0.0 0.0 0.00 0.00 0.00 94 1010.0
20260506105725 78 228 0.0 1.0 0.00 0.00 0.00 94 1010.0
20260506105227 78 227 0.0 0.0 0.00 0.00 0.00 94 1010.0
20260506104727 78 228 0.0 1.0 0.00 0.00 0.00 94 1010.0
20260506104225 78 227 1.0 2.0 0.00 0.00 0.00 94 1010.0
20260506103726 78 197 2.0 2.0 0.00 0.00 0.00 93 1010.0
20260506103225 78 198 1.0 2.0 0.00 0.00 0.00 93 1010.0
20260506102727 78 194 1.0 2.0 0.00 0.00 0.00 93 1009.0
20260506102225 78 180 0.0 2.0 0.00 0.00 0.00 93 1009.0
20260506101724 78 260 1.0 2.0 0.00 0.00 0.00 93 1009.0
20260506101226 78 244 0.0 2.0 0.00 0.00 0.00 93 1009.0
20260506100726 78 2 0.0 0.0 0.00 0.00 0.00 93 1009.0
20260506100226 78 322 0.0 0.0 0.00 0.00 0.00 93 1009.0
20260506095723 78 284 0.0 1.0 0.00 0.00 0.00 92 1010.0
20260506095222 78 290 0.0 0.0 0.00 0.00 0.00 92 1009.0
20260506094723 78 264 0.0 1.0 0.00 0.00 0.00 92 1010.0
20260506094222 78 258 0.0 1.0 0.00 0.00 0.00 92 1009.0
20260506093723 78 324 0.0 0.0 0.00 0.00 0.00 92 1010.0
20260506093223 79 351 0.0 2.0 0.00 0.00 0.00 92 1009.0
20260506092223 79 228 1.0 2.0 0.00 0.00 0.00 92 1010.0
20260506091723 79 211 1.0 1.0 0.00 0.00 0.00 91 1009.0
20260506091224 79 209 1.0 1.0 0.00 0.00 0.00 91 1010.0
20260506090726 79 236 0.0 1.0 0.00 0.00 0.00 90 1010.0
20260506090223 79 344 0.0 0.0 0.00 0.00 0.00 90 1010.0
20260506085723 79 354 0.0 1.0 0.00 0.00 0.00 90 1010.0
20260506085222 79 266 1.0 2.0 0.00 0.00 0.00 90 1010.0
20260506084723 80 237 0.0 2.0 0.00 0.00 0.00 90 1010.0
20260506084223 80 62 1.0 2.0 0.00 0.00 0.00 90 1010.0
20260506083723 80 341 0.0 1.0 0.00 0.00 0.00 90 1010.0
20260506083223 79 340 0.0 2.0 0.00 0.00 0.00 90 1010.0
20260506082723 79 293 0.0 2.0 0.00 0.00 0.00 90 1010.0
20260506082222 79 289 0.0 1.0 0.00 0.00 0.00 90 1010.0
20260506081723 80 239 1.0 2.0 0.00 0.00 0.00 90 1010.0
20260506081225 80 241 0.0 2.0 0.00 0.00 0.00 89 1010.0
20260506080725 80 328 0.0 1.0 0.00 0.00 0.00 89 1010.0
20260506080222 80 315 0.0 1.0 0.00 0.00 0.00 89 1010.0
20260506073223 80 283 0.0 1.0 0.00 0.00 0.00 89 1010.0
20260506072722 80 326 0.0 1.0 0.00 0.00 0.00 89 1010.0
20260506072223 80 227 1.0 1.0 0.00 0.00 0.00 89 1010.0
20260506071723 80 227 1.0 1.0 0.00 0.00 0.00 88 1010.0
20260506071223 81 265 0.0 1.0 0.00 0.00 0.00 88 1010.0
20260506070722 81 265 0.0 1.0 0.00 0.00 0.00 88 1010.0
20260506070222 81 294 0.0 1.0 0.00 0.00 0.00 87 1010.0
20260506061722 81 314 0.0 2.0 0.00 0.00 0.00 87 1011.0
20260506061223 81 277 1.0 2.0 0.00 0.00 0.00 87 1011.0
20260506060722 81 315 1.0 3.0 0.00 0.00 0.00 87 1011.0
20260506060224 81 318 1.0 2.0 0.00 0.00 0.00 87 1011.0
20260506051223 82 336 2.0 4.0 0.00 0.00 0.00 84 1011.0
20260506050723 83 356 2.0 3.0 0.00 0.00 0.00 84 1011.0
20260506050222 83 351 1.0 3.0 0.00 0.00 0.00 84 1011.0
20260506044723 83 352 1.0 3.0 0.00 0.00 0.00 83 1011.0
20260506044222 83 331 1.0 2.0 0.00 0.00 0.00 83 1011.0
20260506043722 83 4 1.0 3.0 0.00 0.00 0.00 82 1010.0
20260506043223 83 317 1.0 2.0 0.00 0.00 0.00 82 1010.0
20260506042723 84 22 0.0 2.0 0.00 0.00 0.00 82 1010.0
20260506042223 84 357 0.0 2.0 0.00 0.00 0.00 82 1010.0
20260506041723 84 21 2.0 3.0 0.00 0.00 0.00 82 1010.0
20260506041224 84 4 1.0 2.0 0.00 0.00 0.00 81 1010.0
20260506040723 84 348 1.0 3.0 0.00 0.00 0.00 81 1010.0
20260506040223 84 26 2.0 4.0 0.00 0.00 0.00 81 1010.0
20260506035722 84 13 1.0 3.0 0.00 0.00 0.00 81 1010.0
20260506035222 84 319 1.0 3.0 0.00 0.00 0.00 81 1010.0
20260506034723 84 330 2.0 3.0 0.00 0.00 0.00 80 1010.0
20260506034223 84 351 2.0 4.0 0.00 0.00 0.00 80 1010.0
20260506033722 84 0 2.0 3.0 0.00 0.00 0.00 80 1010.0
20260506033223 84 1 2.0 4.0 0.00 0.00 0.00 79 1010.0
20260506032723 85 312 1.0 3.0 0.00 0.00 0.00 79 1010.0
20260506032222 85 0 1.0 4.0 0.00 0.00 0.00 79 1010.0
20260506031722 85 335 2.0 3.0 0.00 0.00 0.00 79 1010.0
20260506031222 85 291 1.0 3.0 0.00 0.00 0.00 78 1009.0
20260506030723 85 270 1.0 3.0 0.00 0.00 0.00 78 1010.0
20260506030222 85 280 1.0 3.0 0.00 0.00 0.00 78 1009.0
20260506025722 85 287 1.0 3.0 0.00 0.00 0.00 78 1009.0
20260506025223 85 5 3.0 5.0 0.00 0.00 0.00 78 1009.0
20260506024723 85 335 2.0 4.0 0.00 0.00 0.00 78 1009.0
20260506024222 86 320 2.0 3.0 0.00 0.00 0.00 77 1009.0